Flag for U.S.A. Weather past 2 weeks in Annapolis, Maryland, U.S.A.

Now
74 °F

Clear.


Feels Like: 72 °F
Forecast: 72 / 87 °F
Wind: 3 mph from North

Location: Annapolis - United States Naval Academy

Current Time: Jul 7, 2015 at 5:01:34 AM

Latest Report: Jul 7, 2015 at 3:54 AM


Visibility: 10 mi

Pressure: 30.01 "Hg

Humidity: 91%

Dew point: 71 °F

Location of AnnapolisLocation

Historic Weather in Annapolis — Graph

°F

Annapolis temperature yesterday

Maximum temperature yesterday: 84 °F (at 4:54 PM)
Minimum temperature yesterday: 75 °F (at 4:54 AM)
Average temperature yesterday: 79 °F

Past Weeks' High & Low Weather Summary

 TemperatureHumidityPressure
High93 °F (Jun 23, 2:54 PM)94% (Jun 27, 3:54 PM)30.15 "Hg (Jun 27, 3:54 PM)
Low61 °F (Jun 29, 5:54 AM)36% (Jun 29, 6:54 PM)29.64 "Hg (Jun 28, 2:54 AM)
Average75 °F73%29.95 "Hg
* Reported Jun 22 3:54 AM — Jul 7 3:54 AM, Annapolis, Weather by CustomWeather, © 2015

Note: Actual official high and low records may vary slightly from our data, if they occured in-between our weather recording intervals... More about our weather records

Advertising

Annapolis weather history for previous 24 hours

 ConditionsComfort  
Time TempWeatherWind HumidityBarometerVisibility
3:54 AM
Tue, Jul 7
74 °FClear.3 mph91%30.01 "Hg10 mi
2:54 AM76 °FPassing clouds.7 mph82%30.02 "Hg10 mi
1:54 AM76 °FClear.9 mph82%30.02 "Hg10 mi
12:54 AM76 °FClear.7 mph80%30.02 "Hg10 mi
11:54 PM
Mon, Jul 6
76 °FPassing clouds.6 mph82%30.03 "Hg10 mi
10:54 PM77 °FClear.7 mph79%30.03 "Hg10 mi
9:54 PM79 °FPartly cloudy.7 mph82%30.02 "Hg10 mi
8:54 PM81 °FRain. Broken clouds.10 mph82%30.03 "Hg7 mi
7:54 PM81 °FSunny.9 mph74%30.02 "Hg10 mi
6:54 PM83 °FSunny.14 mph70%30.03 "Hg10 mi
5:54 PM84 °FSunny.12 mph65%30.03 "Hg10 mi
4:54 PM84 °FSunny.10 mph65%30.04 "Hg10 mi
3:54 PM83 °FSunny.14 mph70%30.06 "Hg10 mi
2:54 PM82 °FLight rain. Mostly cloudy.9 mph72%30.07 "Hg7 mi
1:54 PM81 °FSunny.15 mph74%30.09 "Hg10 mi
12:54 PM80 °FPassing clouds.15 mph74%30.11 "Hg10 mi
11:54 AM79 °FMostly cloudy.15 mph79%30.12 "Hg10 mi
10:54 AM77 °FCloudy.9 mph88%30.13 "Hg9 mi
9:54 AM77 °FBroken clouds.6 mph82%30.13 "Hg10 mi
8:54 AM76 °FPassing clouds.10 mph88%30.12 "Hg8 mi
7:54 AM75 °FScattered clouds.8 mph88%30.12 "Hg9 mi
6:54 AM75 °FSunny.10 mph88%30.12 "Hg8 mi
5:54 AM75 °FPassing clouds.12 mph88%30.11 "Hg9 mi
Weather by CustomWeather, © 2015

See weather overviewHow to use our weather pages